TimeMST,TemperatureF,Dew PointF,Humidity,Sea Level PressureIn,VisibilityMPH,Wind Direction,Wind SpeedMPH,Gust SpeedMPH,PrecipitationIn,Events,Conditions,WindDirDegrees,DateUTC
12:15 AM,41.9,19.2,40,29.91,10.0,ESE,6.9,-,N/A,,Overcast,110,2012-12-14 07:15:00
12:35 AM,40.1,17.1,39,29.91,10.0,NE,3.5,-,N/A,,Scattered Clouds,40,2012-12-14 07:35:00
12:55 AM,39.4,17.4,41,29.90,10.0,NE,4.6,-,N/A,,Mostly Cloudy,50,2012-12-14 07:55:00
1:15 AM,39.4,17.6,41,29.89,10.0,ENE,4.6,-,N/A,,Mostly Cloudy,70,2012-12-14 08:15:00
1:35 AM,37.0,17.1,44,29.88,10.0,Calm,Calm,-,N/A,,Mostly Cloudy,0,2012-12-14 08:35:00
1:55 AM,36.5,16.7,45,29.87,10.0,NNE,4.6,-,N/A,,Overcast,20,2012-12-14 08:55:00
2:15 AM,36.1,16.7,45,29.86,10.0,ENE,4.6,-,N/A,,Overcast,60,2012-12-14 09:15:00
2:35 AM,36.9,16.9,44,29.85,10.0,NW,3.5,-,N/A,,Overcast,310,2012-12-14 09:35:00
2:55 AM,39.2,17.1,41,29.84,10.0,ENE,5.8,-,N/A,,Overcast,60,2012-12-14 09:55:00
3:15 AM,38.7,16.7,41,29.84,10.0,Calm,Calm,-,N/A,,Overcast,0,2012-12-14 10:15:00
3:35 AM,38.3,16.7,42,29.83,10.0,NNE,3.5,-,N/A,,Overcast,20,2012-12-14 10:35:00
4:15 AM,42.8,29.5,59,29.81,10.0,South,12.7,20.7,N/A,Rain,Rain,170,2012-12-14 11:15:00
4:35 AM,41.0,33.4,74,29.81,10.0,South,9.2,-,N/A,,Light Drizzle,180,2012-12-14 11:35:00
4:55 AM,40.3,36.7,87,29.77,10.0,SSE,11.5,-,N/A,Rain,Rain,150,2012-12-14 11:55:00
5:15 AM,40.6,37.6,89,29.79,10.0,SSE,9.2,-,N/A,,Overcast,150,2012-12-14 12:15:00
5:35 AM,40.1,37.4,90,29.79,10.0,SSE,5.8,-,N/A,,Overcast,160,2012-12-14 12:35:00
5:55 AM,40.1,37.0,89,29.76,10.0,SE,5.8,-,N/A,,Overcast,130,2012-12-14 12:55:00
6:15 AM,40.1,37.8,91,29.76,10.0,South,9.2,-,N/A,,Overcast,170,2012-12-14 13:15:00
6:35 AM,40.1,38.5,94,29.77,10.0,South,8.1,-,N/A,Rain,Light Rain,190,2012-12-14 13:35:00
6:55 AM,40.1,38.7,95,29.75,10.0,South,9.2,-,N/A,,Mostly Cloudy,170,2012-12-14 13:55:00
7:15 AM,39.7,38.3,95,29.76,10.0,South,6.9,-,N/A,,Mostly Cloudy,170,2012-12-14 14:15:00
7:35 AM,40.1,38.5,94,29.74,10.0,SE,11.5,-,N/A,,Mostly Cloudy,140,2012-12-14 14:35:00
7:55 AM,40.3,38.5,93,29.74,10.0,SSE,6.9,-,N/A,,Scattered Clouds,150,2012-12-14 14:55:00
8:15 AM,40.6,39.0,94,29.73,10.0,SE,11.5,-,N/A,,Mostly Cloudy,140,2012-12-14 15:15:00
8:35 AM,42.1,40.1,93,29.74,10.0,SSE,12.7,-,N/A,,Overcast,160,2012-12-14 15:35:00
8:55 AM,43.7,41.0,90,29.74,10.0,South,11.5,-,N/A,,Overcast,190,2012-12-14 15:55:00
9:15 AM,42.1,40.6,95,29.76,5.0,WSW,10.4,-,0.02,Rain,Light Rain,240,2012-12-14 16:15:00
9:35 AM,42.8,41.2,94,29.76,10.0,SSW,12.7,17.3,0.02,,Overcast,200,2012-12-14 16:35:00
9:55 AM,43.0,39.6,88,29.80,10.0,WSW,12.7,-,0.02,Rain,Light Rain,240,2012-12-14 16:55:00
10:15 AM,42.3,37.4,83,29.79,10.0,West,10.4,20.7,N/A,,Drizzle,260,2012-12-14 17:15:00
10:35 AM,41.7,36.0,80,29.81,10.0,WSW,17.3,24.2,N/A,,Light Drizzle,250,2012-12-14 17:35:00
10:55 AM,41.2,36.5,83,29.80,10.0,SW,8.1,-,N/A,,Light Drizzle,220,2012-12-14 17:55:00
11:15 AM,41.9,36.5,81,29.76,10.0,South,6.9,-,N/A,,Overcast,170,2012-12-14 18:15:00
11:35 AM,41.4,35.8,81,29.76,10.0,SE,9.2,-,N/A,,Overcast,130,2012-12-14 18:35:00
11:55 AM,41.0,37.6,88,29.76,10.0,SE,8.1,-,N/A,,Overcast,140,2012-12-14 18:55:00
12:15 PM,41.2,37.9,88,29.77,10.0,SSE,11.5,-,N/A,,Mostly Cloudy,160,2012-12-14 19:15:00
12:35 PM,41.9,37.4,84,29.76,10.0,South,11.5,-,N/A,,Scattered Clouds,170,2012-12-14 19:35:00
12:55 PM,44.4,35.4,71,29.74,10.0,South,9.2,-,N/A,,Scattered Clouds,180,2012-12-14 19:55:00
1:15 PM,46.2,33.1,60,29.74,10.0,South,10.4,-,N/A,,Mostly Cloudy,190,2012-12-14 20:15:00
1:35 PM,46.4,33.1,60,29.74,10.0,SSW,10.4,-,N/A,,Overcast,200,2012-12-14 20:35:00
1:55 PM,47.3,30.0,51,29.74,10.0,WSW,19.6,31.1,N/A,,Mostly Cloudy,250,2012-12-14 20:55:00
2:15 PM,49.5,30.9,49,29.74,10.0,WSW,19.6,27.6,N/A,,Scattered Clouds,240,2012-12-14 21:15:00
2:35 PM,49.3,28.8,45,29.74,10.0,West,25.3,29.9,N/A,,Scattered Clouds,260,2012-12-14 21:35:00
2:55 PM,49.5,28.8,45,29.74,10.0,WSW,20.7,26.5,N/A,,Mostly Cloudy,250,2012-12-14 21:55:00
3:15 PM,44.8,31.8,60,29.76,10.0,West,21.9,27.6,N/A,,Mostly Cloudy,270,2012-12-14 22:15:00
3:35 PM,46.6,29.5,51,29.77,10.0,West,24.2,31.1,N/A,,Mostly Cloudy,260,2012-12-14 22:35:00
3:55 PM,46.0,28.4,50,29.78,10.0,West,16.1,29.9,N/A,,Scattered Clouds,260,2012-12-14 22:55:00
4:15 PM,45.3,28.2,51,29.79,10.0,West,17.3,25.3,N/A,,Clear,260,2012-12-14 23:15:00
4:35 PM,44.4,27.7,52,29.80,10.0,West,15.0,21.9,N/A,,Clear,260,2012-12-14 23:35:00
4:55 PM,42.8,27.5,55,29.81,10.0,West,11.5,-,N/A,,Clear,270,2012-12-14 23:55:00
5:15 PM,41.7,26.2,54,29.83,10.0,West,13.8,19.6,N/A,,Scattered Clouds,270,2012-12-15 00:15:00
5:35 PM,41.5,26.2,55,29.84,10.0,West,18.4,-,N/A,,Scattered Clouds,260,2012-12-15 00:35:00
5:55 PM,41.2,27.1,57,29.86,10.0,West,13.8,-,N/A,,Clear,270,2012-12-15 00:55:00
6:15 PM,40.1,27.5,61,29.87,10.0,West,15.0,20.7,N/A,,Clear,260,2012-12-15 01:15:00
6:35 PM,37.9,27.7,67,29.89,10.0,WNW,8.1,-,N/A,,Clear,290,2012-12-15 01:35:00
6:55 PM,36.5,27.5,70,29.90,10.0,West,10.4,-,N/A,,Scattered Clouds,260,2012-12-15 01:55:00
7:35 PM,34.9,28.2,77,29.93,10.0,ENE,5.8,-,N/A,,Overcast,70,2012-12-15 02:35:00
7:55 PM,36.7,29.1,74,29.94,10.0,ENE,6.9,-,N/A,,Overcast,70,2012-12-15 02:55:00
8:15 PM,38.1,28.6,69,29.95,10.0,Calm,Calm,-,N/A,,Overcast,0,2012-12-15 03:15:00
8:35 PM,37.6,28.0,68,29.95,10.0,West,9.2,-,N/A,,Mostly Cloudy,270,2012-12-15 03:35:00
8:55 PM,37.2,27.9,69,29.97,10.0,West,4.6,-,N/A,,Scattered Clouds,270,2012-12-15 03:55:00
9:15 PM,34.5,28.2,78,29.98,10.0,WSW,8.1,-,N/A,,Mostly Cloudy,250,2012-12-15 04:15:00
9:35 PM,36.1,28.8,75,30.00,10.0,South,4.6,-,N/A,,Overcast,170,2012-12-15 04:35:00
9:55 PM,36.3,29.5,76,30.01,10.0,Calm,Calm,-,N/A,,Overcast,0,2012-12-15 04:55:00
10:15 PM,35.4,28.6,76,30.01,10.0,West,5.8,-,N/A,,Mostly Cloudy,270,2012-12-15 05:15:00
10:35 PM,35.6,27.5,72,30.02,10.0,WSW,3.5,-,N/A,,Mostly Cloudy,250,2012-12-15 05:35:00
10:55 PM,36.1,27.7,71,30.04,10.0,SW,6.9,-,N/A,,Overcast,230,2012-12-15 05:55:00
11:15 PM,36.1,27.5,71,30.02,10.0,WNW,9.2,-,N/A,,Overcast,290,2012-12-15 06:15:00
11:35 PM,35.8,27.1,71,30.03,10.0,Calm,Calm,-,N/A,,Scattered Clouds,0,2012-12-15 06:35:00
11:55 PM,32.9,27.5,81,30.01,10.0,NW,10.4,-,N/A,,Mostly Cloudy,310,2012-12-15 06:55:00